Terminal Aerodrome Forecast
Issued by NWS Mt. Holly, NJ

Home | Current Version | Previous Version | Text Only | Print | Product List | Glossary On
Versions: 1 2 3 4 5 6 7 8 9 10 11 12 13 14 15
000
FTUS41 KPHI 200500
TAFACY
TAF
KACY 200533Z 2006/2106 31004KT P6SM SCT250
     FM200800 32003KT P6SM SCT030 BKN200
     FM201400 34006KT P6SM SCT035 OVC180
     FM210200 VRB02KT P6SM SCT030 BKN100=

USA.gov is the U.S. government's official web portal to all federal, state and local government web resources and services.